weather.gov     
National Weather Service

Regional Weather Roundup
NWS Homepage
This page is being discontinued on March 12, 2014.
The same data is available at this site. Please update your bookmarks.
Thank you, and we apologize for the inconvenience.
Please send an email to SR-SRH.Webmaster@noaa.gov with any concerns.


Current Version
Previous Version:    01  02  03  04  05  06  07  08  09  10  11  12  13  14  15  16  17  18  19  20  21  22  23  24  25  26  27  
[Printable]
837
ASUS44 KMOB 260510
RWRMOB
REGIONAL WEATHER ROUNDUP
NATIONAL WEATHER SERVICE MOBILE AL
1200 AM CDT SAT JUL 26 2014

NOTE: "FAIR" INDICATES FEW OR NO CLOUDS BELOW 12,000 FEET WITH NO
      SIGNIFICANT WEATHER AND/OR OBSTRUCTIONS TO VISIBILITY.

  * THESE STATIONS ARE PART OF THE UNIVERSITY OF SOUTH ALABAMA
    MESONET AND ARE NOT UNDER NWS OR FAA QUALITY CONTROL.

ALZ061>064-260600-
COASTAL ALABAMA

CITY           SKY/WX    TMP DP  RH WIND       PRES   REMARKS
MOBILE REG APT CLOUDY    75  74  96 S5        30.03S
BROOKLEY FIELD MOCLDY    75  74  96 SW3       30.03S
USA CAMPUS*      N/A     73  73 100 CALM      30.02R
DOG RIVER*       N/A     75  75 100 S3        30.02F


CITY           SKY/WX    TMP DP  RH WIND       PRES   REMARKS
MOUNT VERNON*  NOT AVBL
SARALAND*      NOT AVBL
BAY MINETTE*   NOT AVBL
LOXLEY*          N/A     75  73  94 CALM      30.02R
ROBERTSDALE*     N/A    N/A N/A N/A CALM      30.01S
FAIRHOPE*        N/A     77  75  94 SW8       30.01S
ELBERTA*         N/A     79  66  65 CALM      30.01S
FOLEY*         NOT AVBL
GRAND BAY*       N/A     77  75  94 S3        30.00F
DAUPHIN ISLND* NOT AVBL
BON SCOUR NWR* NOT AVBL
GULF SHORES    MOCLDY    78  76  92 SW5       30.02S

$$

ALZ051>060-260600-
INTERIOR SOUTHWEST AND SOUTH CENTRAL ALABAMA

CITY           SKY/WX    TMP DP  RH WIND       PRES   REMARKS
GREENVILLE     CLEAR     75  72  90 CALM      30.03R
EVERGREEN      CLEAR     76  73  91 CALM      30.03R
CASTLEBERRY*   NOT AVBL
ATMORE*          N/A     75  73  94 CALM      30.04R
DIXIE*         NOT AVBL
ANDALUSIA/OPP  CLEAR     78  74  87 CALM      30.03R
ANDALUSIA*     NOT AVBL
FLORALA APT    PTCLDY    76  74  93 CALM      30.04R
FLORALA*         N/A     73  72  94 CALM      30.00R

$$

FLZ001>006-260600-
WESTERN FLORIDA PANHANDLE

CITY           SKY/WX    TMP DP  RH WIND       PRES   REMARKS
PENSACOLA      PTCLDY    77  76  96 NW3       30.02R
NAS PENSACOLA  PTCLDY    81  77  88 W5        30.01S
MILTON         CLEAR     78  74  87 SW6       30.02S
WHTNG S FIELD  CLEAR     78  75  90 SW3       30.02S


CITY           SKY/WX    TMP DP  RH WIND       PRES   REMARKS
WALNUT HILL*   NOT AVBL
JAY*           NOT AVBL
DUKE FIELD     PTCLDY    77  76  99 S5        30.02S
CRESTVIEW      CLOUDY    77  75  93 S3        30.04R FOG
VALPARAISO     PTCLDY    81  77  87 SW6       30.02F
DESTIN         MOCLDY    84  77  79 SW7       30.02F

$$

MSZ076-079-260600-
INTERIOR SOUTHEAST MISSISSIPPI

CITY           SKY/WX    TMP DP  RH WIND       PRES   REMARKS
LEAKESVILLE*     N/A     73  72  94 CALM        N/A
AGRICOLA*      NOT AVBL

$$

MARINE OBSERVATIONS

STATION/POSITION TIME  TEMP    WIND        PRES    WAVE
                       AIR SEA DIR/SP/G            HT/PER
                 (UTC) (F)     (DEG/KT/KT) (MB)    (FT/S)
PASCAGOULA       0500   81     190/  4/  5 1016.3F
PETIT BOIS ISLND 0500   82     280/  7/  9 1017.2F
GRAND BAY        0400   81     190/ 10     1018.0S
KATRINA CUT      0400   80      20/  6     1017.6F
CEDAR POINT      0400   77     250/  4     1016.9F
E DAUPHIN ISLAND 0500   79     280/ 10/ 12 1016.7F
MIDDLE BAY LIGHT 0400   81     230/ 15     1015.6F
USCG MOBILE BAY  0500   76 84  230/  4/  7 1015.3S
STATE DOCKS      0500   78 85              1016.1R
MEAHER PARK      0400   82     190/  5     1015.9S
WEEKS BAY        0400   77                   N/A
FORT MORGAN      0500   81     270/  8/ 10 1016.4F
12 S ORANGE BCH  0500   84 84  240/ 12/ 14 1016.8R   2/ 4
PENSACOLA BAY    0500   85 86  240/  9/ 12 1016.7R
64 S DAUPHIN ISL 0448   84 85  250/ 14/ 16 1017.7F
67 S FORT MORGAN 0400   83                 1017.3F

$$

SELECTED LOCATIONS ACROSS THE REGION

CITY           SKY/WX    TMP DP  RH WIND       PRES   REMARKS
NEW ORLEANS    MOCLDY    80  75  84 SW5       30.03S
GULFPORT       CLOUDY    82  75  79 CALM      30.02F
PASCAGOULA AP  MOCLDY    78  75  90 S5        30.02F
PASCAGOULA*      N/A     75  75 100 CALM      30.02F
HATTIESBURG    CLEAR     79  74  84 CALM      30.03S
LAUREL         CLEAR     75  72  88 SW3       30.04S
MERIDIAN       CLEAR     72  70  93 CALM      30.02S
JACKSON        CLEAR     74  71  91 CALM      30.02R
MONTGOMERY     CLEAR     77  74  90 S5        30.01R
TROY           CLEAR     75  72  90 CALM      30.03S
KINSTON*       NOT AVBL
GENEVA*          N/A     72  70  94 CALM      30.04S
ASHFORD*       NOT AVBL
DOTHAN         PTCLDY    77  75  93 SW7       30.05S
PANAMA CITY    PTCLDY    80  75  84 S3        30.02R

$$





U.S. Dept. of Commerce
NOAA National Weather Service
1325 East West Highway
Silver Spring, MD 20910
E-mail: w-nws.webmaster@noaa.gov
Page last modified: May 16, 2007
NATIONAL WEATHER SERVICE: for Safety, for Work, for Fun - FOR LIFE